Home > Weather > Baton Rouge > Past weeks

Flag for USA Weather for the Past 2 Weeks in Baton Rouge, Louisiana, USA

Now
66 °F

Clear.


Feels Like: 66 °F
Forecast: 56 / 78 °F
Wind: No wind

Location: Baton Rouge Metropolitan - Ryan Field

Current Time: May 3, 2016 at 11:21:59 PM

Latest Report: May 3, 2016 at 9:53 PM


Visibility: 10 mi

Pressure: 29.96 "Hg

Humidity: 73%

Dew Point: 57 °F

Location of Baton RougeLocation

Historic Weather in Baton Rouge — Graph

°F

Baton Rouge Temperature Yesterday

Maximum temperature yesterday: 80 °F (at 5:53 PM)
Minimum temperature yesterday: 64 °F (at 3:53 AM)
Average temperature yesterday: 70 °F

High & Low Weather Summary for the Past Weeks

 TemperatureHumidityPressure
High88 °F (Apr 29, 1:53 PM)97% (Apr 20, 4:53 AM)30.17 "Hg (Apr 20, 4:53 AM)
Low56 °F (Apr 24, 4:53 AM)32% (Apr 23, 4:53 PM)29.70 "Hg (Apr 27, 3:53 PM)
Average72 °F76%29.93 "Hg
* Reported Apr 18 9:53 PM — May 3 9:53 PM, Baton Rouge, Weather by CustomWeather, © 2016

Note: Actual official high and low records may vary slightly from our data, if they occured in-between our weather recording intervals... More about our weather records

Advertising

Baton Rouge Weather History for the Previous 24 Hours

Scroll right to see more
 ConditionsComfort  
Time TempWeatherWind HumidityBarometerVisibility
9:53 PM
Tue, May 3
66 °FClear.No wind73%29.96 "Hg10 mi
8:53 PM67 °FClear.No wind71%29.94 "Hg10 mi
7:53 PM69 °FPassing clouds.No wind66%29.93 "Hg10 mi
6:53 PM74 °FScattered clouds.5 mph56%29.92 "Hg10 mi
5:53 PM76 °FScattered clouds.6 mph52%29.90 "Hg10 mi
4:53 PM74 °FPassing clouds.7 mph57%29.91 "Hg10 mi
3:53 PM77 °FScattered clouds.No wind56%29.92 "Hg10 mi
2:53 PM73 °FBroken clouds.8 mph64%29.94 "Hg10 mi
1:53 PM71 °FPartly sunny.3 mph71%29.95 "Hg10 mi
12:53 PM69 °FOvercast.5 mph76%29.97 "Hg10 mi
11:53 AM70 °FOvercast.5 mph71%29.99 "Hg10 mi
10:53 AM69 °FMostly cloudy.5 mph73%30.00 "Hg10 mi
9:53 AM68 °FMore clouds than sun.6 mph76%29.99 "Hg10 mi
8:53 AM66 °FMostly cloudy.3 mph84%29.98 "Hg10 mi
7:53 AM64 °FLow clouds.5 mph87%29.97 "Hg10 mi
6:53 AM64 °FLow clouds.5 mph87%29.96 "Hg10 mi
5:53 AM65 °FLow clouds.5 mph85%29.95 "Hg10 mi
4:53 AM65 °FLow clouds.7 mph91%29.94 "Hg10 mi
3:53 AM66 °FLow clouds.6 mph90%29.93 "Hg10 mi
2:53 AM66 °FLow clouds.6 mph90%29.94 "Hg10 mi
1:53 AM67 °FMostly cloudy.5 mph90%29.95 "Hg10 mi
12:53 AM67 °FClear.No wind90%29.96 "Hg10 mi
11:53 PM
Mon, May 2
68 °FClear.3 mph90%29.96 "Hg10 mi
11:02 PM69 °FPartly cloudy.7 mph90%29.99 "Hg10 mi
Weather by CustomWeather, © 2016

See weather overviewHow to use our weather pages